Waarnemingen

Advertentie
Mijn weer
Ibiza/Es Codola, Spanje (8373): temperatuur & dauwpunt: 16.08.2018 01:00:00 - 22.08.2018 01:00:00 (CEST)Ibiza/Es Codola, Spanje (8373): windsnelheid: 16.08.2018 01:00:00 - 22.08.2018 01:00:00 (CEST)Ibiza/Es Codola, Spanje (8373): windrichting: 16.08.2018 01:00:00 - 22.08.2018 01:00:00 (CEST)Ibiza/Es Codola, Spanje (8373): luchtdruk: 16.08.2018 01:00:00 - 22.08.2018 01:00:00 (CEST)Ibiza/Es Codola, Spanje (8373): zicht: 16.08.2018 01:00:00 - 22.08.2018 01:00:00 (CEST)
Datum & Tijd tt [°C] td [°C] ff [km/u] ff [kn] dd ppp [hPa] vv [km]
22.08.2018 01:00:00 23,2 16,3 2 1 - 1015,8 10
22.08.2018 00:00:00 24,2 16,6 4 2 - 1015,7 10
21.08.2018 23:00:00 25,4 17,6 8 4 N 1015,7 10
21.08.2018 22:00:00 27,0 18,3 11 6 O 1015,5 10
21.08.2018 21:00:00 27,1 17,0 4 2 - 1015,2 10
21.08.2018 20:00:00 29,2 13,5 8 4 Z 1015,0 10
21.08.2018 19:00:00 30,2 14,2 8 4 ZO 1015,1 10
21.08.2018 18:00:00 30,2 15,2 9 5 - 1015,0 10
21.08.2018 17:00:00 30,3 18,1 18 10 O 1015,4 30
21.08.2018 16:00:00 31,0 18,0 8 4 - 1015,9 10
21.08.2018 15:00:00 31,0 15,1 8 4 - 1016,1 10
21.08.2018 14:00:00 31,5 15,7 8 4 - 1016,4 10
21.08.2018 13:00:00 30,8 13,9 11 6 OZO 1016,8 10
21.08.2018 12:00:00 31,6 16,7 8 4 ZZO 1016,8 10
21.08.2018 11:00:00 30,1 15,6 5 3 - 1016,9 10
21.08.2018 10:00:00 28,6 17,3 5 3 - 1016,9 10
21.08.2018 09:00:00 26,2 19,5 2 1 - 1017,0 10
21.08.2018 08:00:00 22,7 18,5 4 2 WNW 1017,1 30
21.08.2018 07:00:00 21,0 17,0 0 0 N 1016,8 10
21.08.2018 06:00:00 21,5 17,1 5 3 N 1016,5 10
21.08.2018 05:00:00 22,1 17,6 4 2 N 1016,4 10
21.08.2018 04:00:00 21,9 17,8 2 1 - 1016,5 10
21.08.2018 03:00:00 22,5 17,8 4 2 - 1016,8 10
21.08.2018 02:00:00 22,7 17,5 2 1 - 1017,1 10
21.08.2018 01:00:00 23,6 17,3 4 2 - 1017,2 10
21.08.2018 00:00:00 23,6 17,0 5 3 NNW 1017,2 10
20.08.2018 23:00:00 24,7 16,4 8 4 NW 1017,3 10
20.08.2018 22:00:00 25,4 16,5 2 1 - 1017,2 10
20.08.2018 21:00:00 26,8 15,6 4 2 ZO 1016,7 10
20.08.2018 20:00:00 28,8 14,1 8 4 Z 1016,5 10
20.08.2018 19:00:00 29,3 15,1 11 6 ZZW 1016,6 10
20.08.2018 18:00:00 30,3 14,3 11 6 ZZW 1017,0 10
20.08.2018 17:00:00 30,9 12,4 11 6 ONO 1017,4 30
20.08.2018 16:00:00 30,5 12,8 13 7 O 1017,9 10
20.08.2018 15:00:00 30,7 13,6 16 9 O 1018,1 10
20.08.2018 14:00:00 30,6 13,5 16 9 O 1018,5 10
20.08.2018 13:00:00 30,0 14,3 11 6 O 1018,7 10
20.08.2018 12:00:00 30,5 14,0 11 6 NNO 1018,8 10
20.08.2018 11:00:00 29,3 16,1 5 3 - 1018,5 10
20.08.2018 10:00:00 28,0 16,4 11 6 N 1018,6 10
20.08.2018 09:00:00 26,4 18,2 4 2 - 1018,5 10
20.08.2018 08:00:00 24,2 18,2 5 3 N 1018,4 10
20.08.2018 07:00:00 21,6 16,8 0 0 N 1018,1 10
20.08.2018 06:00:00 22,0 16,9 0 0 N 1018,0 10
20.08.2018 05:00:00 22,5 17,0 8 4 NNW 1018,1 10
20.08.2018 04:00:00 22,9 17,1 5 3 NNW 1018,3 10
20.08.2018 03:00:00 23,7 17,2 5 3 NNW 1018,6 10
20.08.2018 02:00:00 22,6 17,1 5 3 NNW 1019,0 10
20.08.2018 01:00:00 23,4 16,9 5 3 - 1019,1 10
20.08.2018 00:00:00 23,2 16,8 2 1 - 1019,1 10
19.08.2018 23:00:00 23,9 16,7 2 1 - 1019,1 10
19.08.2018 22:00:00 25,5 15,9 4 2 N 1018,8 10
19.08.2018 21:00:00 26,2 15,9 9 5 N 1018,4 10
19.08.2018 20:00:00 27,9 15,9 13 7 N 1018,3 10
19.08.2018 19:00:00 27,9 16,6 16 9 ONO 1018,5 10
19.08.2018 18:00:00 28,5 17,5 18 10 O 1018,7 10
19.08.2018 17:00:00 28,8 16,3 24 13 ONO 1018,9 30
19.08.2018 16:00:00 29,1 16,4 24 13 O 1019,2 10
19.08.2018 15:00:00 29,7 15,8 21 11 O 1019,6 10
19.08.2018 14:00:00 29,0 17,1 21 11 O 1019,7 10
19.08.2018 13:00:00 27,8 17,2 18 10 O 1020,2 10
19.08.2018 12:00:00 27,0 16,8 11 6 NO 1020,5 10
19.08.2018 11:00:00 28,1 15,4 9 5 - 1020,3 10
19.08.2018 10:00:00 27,1 15,7 9 5 NNO 1020,2 10
19.08.2018 09:00:00 25,6 16,7 4 2 - 1020,1 10
19.08.2018 08:00:00 22,0 17,2 5 3 NNW 1019,9 23
19.08.2018 07:00:00 21,1 16,7 11 6 NNW 1019,6 10
19.08.2018 06:00:00 20,6 17,0 4 2 - 1019,4 10
19.08.2018 05:00:00 20,8 17,1 0 0 N 1019,6 10
19.08.2018 04:00:00 21,6 17,3 11 6 NNW 1019,3 10
19.08.2018 03:00:00 21,7 17,3 0 0 N 1019,6 10
19.08.2018 02:00:00 22,0 17,7 4 2 - 1019,8 10
19.08.2018 01:00:00 22,2 17,3 11 6 NNW 1020,0 10
19.08.2018 00:00:00 22,2 17,8 9 5 N 1020,0 10
18.08.2018 23:00:00 22,5 17,8 11 6 N 1019,8 18
18.08.2018 22:00:00 22,9 18,0 9 5 N 1019,5 10
18.08.2018 21:00:00 24,9 17,9 4 2 - 1018,9 10
18.08.2018 20:00:00 25,9 17,6 9 5 NNO 1018,5 10
18.08.2018 19:00:00 26,2 16,4 11 6 NNO 1018,2 10
18.08.2018 18:00:00 25,6 17,4 4 2 - 1018,9 9
18.08.2018 17:00:00 24,7 17,6 5 3 NO 1019,3 9
18.08.2018 16:00:00 23,5 16,7 22 12 NNO 1019,8 9
18.08.2018 15:00:00 26,7 16,2 15 8 O 1019,2 10
18.08.2018 14:00:00 28,1 16,8 18 10 ONO 1019,2 10
18.08.2018 13:00:00 27,3 15,7 21 11 ONO 1019,5 10
18.08.2018 12:00:00 26,5 16,5 28 15 ONO 1019,3 10
18.08.2018 11:00:00 27,1 16,2 13 7 O 1019,2 10
18.08.2018 10:00:00 25,6 17,6 13 7 NO 1018,9 10
18.08.2018 09:00:00 25,2 17,3 5 3 NO 1018,8 10
18.08.2018 08:00:00 21,2 17,1 8 4 NO 1018,4 10
18.08.2018 07:00:00 21,2 17,0 0 0 N 1017,9 10
18.08.2018 06:00:00 21,0 17,0 2 1 - 1017,9 10
18.08.2018 05:00:00 20,6 16,9 4 2 - 1017,6 10
18.08.2018 04:00:00 21,6 17,8 2 1 - 1017,6 10
18.08.2018 03:00:00 21,7 18,1 2 1 - 1017,7 10
18.08.2018 02:00:00 21,8 18,2 2 1 - 1018,1 10
18.08.2018 01:00:00 22,4 18,2 4 2 - 1018,0 10
18.08.2018 00:00:00 22,1 18,1 0 0 N 1018,3 10
17.08.2018 23:00:00 21,9 17,1 8 4 NNW 1017,8 10
17.08.2018 22:00:00 22,4 16,8 9 5 NNW 1017,6 10
17.08.2018 21:00:00 24,2 16,2 11 6 ONO 1016,8 10
17.08.2018 20:00:00 24,9 15,7 11 6 NO 1016,4 10
17.08.2018 19:00:00 24,4 17,8 11 6 ONO 1015,7 10
17.08.2018 18:00:00 24,7 16,7 8 4 O 1016,5 10
17.08.2018 17:00:00 24,5 16,9 8 4 NNO 1016,4 10
17.08.2018 16:00:00 23,6 16,7 2 1 - 1016,9 10
17.08.2018 15:00:00 22,1 17,7 11 6 NO 1017,6 10
17.08.2018 14:00:00 20,9 17,1 9 5 N 1017,6 15
17.08.2018 13:00:00 20,1 16,9 2 1 - 1017,9 5
17.08.2018 12:00:00 20,2 16,9 0 0 N 1018,5 6
17.08.2018 11:00:00 19,9 17,2 16 9 N 1018,1 3,0
17.08.2018 10:00:00 26,1 18,2 2 1 - 1016,3 10
17.08.2018 09:00:00 25,4 18,3 5 3 NNW 1016,5 10
17.08.2018 08:00:00 23,9 18,1 8 4 NNW 1015,5 25
17.08.2018 07:00:00 23,1 18,0 4 2 - 1015,3 10
17.08.2018 06:00:00 23,2 18,1 5 3 NW 1015,3 10
17.08.2018 05:00:00 23,7 18,1 5 3 N 1015,0 10
17.08.2018 04:00:00 24,7 17,7 5 3 ZO 1015,1 10
17.08.2018 03:00:00 25,0 18,4 0 0 N 1015,4 10
17.08.2018 02:00:00 25,8 18,1 4 2 - 1015,6 10
17.08.2018 01:00:00 25,2 18,2 0 0 N 1015,8 10
17.08.2018 00:00:00 25,7 18,2 5 3 ZZO 1015,8 10
16.08.2018 23:00:00 25,4 17,8 5 3 ZZO 1015,5 10
16.08.2018 22:00:00 25,6 17,5 4 2 - 1014,6 10
16.08.2018 21:00:00 26,7 17,7 9 5 Z 1014,1 10
16.08.2018 20:00:00 27,5 17,1 8 4 ZZO 1014,1 10
16.08.2018 19:00:00 28,6 17,4 11 6 OZO 1014,2 10
16.08.2018 18:00:00 29,8 17,3 11 6 Z 1014,0 10
16.08.2018 17:00:00 29,1 17,9 15 8 ZZW 1014,8 10
16.08.2018 16:00:00 29,5 17,9 18 10 ZZW 1015,5 10
16.08.2018 15:00:00 29,9 17,5 18 10 ZZW 1016,0 10
16.08.2018 14:00:00 27,7 18,0 16 9 ZZW 1016,1 10
16.08.2018 13:00:00 27,8 17,9 13 7 ZZW 1016,5 10
16.08.2018 12:00:00 29,9 16,9 11 6 Z 1016,5 10
16.08.2018 11:00:00 27,7 17,0 9 5 ZZW 1016,7 10
16.08.2018 10:00:00 27,9 16,5 9 5 Z 1016,6 10
16.08.2018 09:00:00 26,8 18,1 9 5 Z 1016,2 10
16.08.2018 08:00:00 23,6 18,2 0 0 N 1016,2 10
16.08.2018 07:00:00 23,2 17,9 4 2 - 1015,9 10
16.08.2018 06:00:00 22,5 17,4 5 3 NW 1015,9 10
16.08.2018 05:00:00 22,7 17,4 5 3 N 1015,7 10
16.08.2018 04:00:00 22,7 17,4 5 3 NNW 1016,2 10
16.08.2018 03:00:00 23,9 17,2 0 0 N 1016,5 10
16.08.2018 02:00:00 25,2 16,5 8 4 OZO 1016,6 10
16.08.2018 01:00:00 25,4 16,3 5 3 OZO 1016,9 10

tt = temperatuur
td = dauwpunt
ff = windsnelheid
dd = windrichting
ppp = luchtdruk
vv = zicht

Weerstations in de omgeving